Location: Ciula Mare
(45.6000°N, 22.8167°E)
Time: 05:44:04
(UTC+00:00)

Meteor PRIRODA - Pass Details

Date: 03 February 2023
Orbit: 473 x 489 km, 97.6° (Epoch: 29 March)

Event Time Altitude Azimuth Distance (km) Brightness Sun altitude
Rises 16:00:21 0° 161° (SSE) 2,510 7.2 -4.6°
Reaches altitude 10° 16:02:23 10° 159° (SSE) 1,637 6.2 -4.9°
Maximum altitude 16:05:53 71° 75° (ENE) 506 3.5 -5.5°
Drops below altitude 10° 16:09:25 10° 351° (N) 1,653 6.2 -6.1°
Sets 16:11:29 0° 350° (N) 2,539 7.1 -6.4°
